Flag for Norway Weather past 2 weeks in Mysen, Norway

Now
66 °F

Sunny.


Feels Like: 66 °F
Forecast: 43 / 63 °F
Wind: 5 mph from West

Location: Rygge

Current Time: Sep 19, 2014 at 4:54:44 PM

Latest Report: Sep 19, 2014 at 4:00 PM


Visibility: 19 mi

Pressure: 30.06 "Hg

Humidity: 54%

Dew point: 49 °F

Location of MysenLocation

Historic Weather in Mysen — Graph

°F

Mysen temperature yesterday

Maximum temperature yesterday: 66 °F (at 4:00 PM)
Minimum temperature yesterday: 44 °F (at 6:00 AM)
Average temperature yesterday: 52 °F

Past Weeks' High & Low Weather Summary

 TemperatureHumidityPressure
High68 °F (Sep 14, 4:00 PM)99% (Sep 11, 6:00 AM)30.48 "Hg (Sep 11, 6:00 AM)
Low44 °F (Sep 18, 6:00 AM)46% (Sep 14, 5:00 PM)29.83 "Hg (Sep 9, 2:00 PM)
Average56 °F81%30.28 "Hg
* Reported Sep 9 2:00 PM — Sep 19 3:00 PM, Mysen, Weather by CustomWeather, © 2014

Note: Actual official high and low records may vary slightly from our data, if they occured in-between our weather recording intervals... More about our weather records

Advertising

Mysen weather history for previous 24 hours

 ConditionsComfort  
Time TempWeatherWind HumidityBarometerVisibility
3:00 PM
Sep 19
67 °FSunny.3 mph52%30.07 "Hg19 mi
2:00 PM66 °FSunny.2 mph59%30.08 "Hg19 mi
1:00 PM64 °FSunny.2 mph66%30.10 "Hg19 mi
12:00 PM62 °FPassing clouds.1 mph73%30.11 "Hg22 mi
11:00 AM55 °FOvercast.2 mph87%30.12 "Hg16 mi
10:00 AM50 °FOvercast.2 mph94%30.13 "Hg16 mi
9:00 AM48 °FPartly sunny.2 mph96%30.12 "Hg10 mi
8:00 AM46 °FPartly sunny.2 mph98%30.12 "Hg6 mi
7:00 AM45 °FPassing clouds.1 mph98%30.11 "Hg6 mi
6:00 AM46 °FOvercast.1 mph98%30.12 "Hg6 mi
5:00 AM46 °FClear.2 mph98%30.13 "Hg3 mi
4:00 AM46 °FPassing clouds.1 mph97%30.13 "Hg4 mi
3:00 AM47 °FPassing clouds.1 mph96%30.14 "Hg8 mi
2:00 AM48 °FPassing clouds.2 mph94%30.14 "Hg12 mi
1:00 AM48 °FPassing clouds.2 mph95%30.15 "Hg14 mi
12:00 AM48 °FPassing clouds.2 mph95%30.16 "Hg17 mi
11:00 PM
Sep 18
49 °FClear.2 mph93%30.16 "Hg25 mi
10:00 PM50 °FClear.2 mph92%30.16 "Hg22 mi
9:00 PM52 °FClear.1 mph91%30.16 "Hg19 mi
8:00 PM56 °FClear.1 mph85%30.16 "Hg16 mi
5:00 PM66 °FSunny.2 mph59%30.15 "Hg22 mi
4:00 PM66 °FSunny.2 mph61%30.16 "Hg22 mi
Weather by CustomWeather, © 2014

See weather overviewHow to use our weather pages